sat.trackr.live / text

‹ back to catalog

COSMOS 2531 (RODNIK-S *)

NORAD 43752 · 2018-097B

PAYLOAD ACTIVE UNKNOWN

§ Identity

Operator
Country
CIS
Launch date
2018-11-30
Launch site
PLMSC
Launch vehicle
Mass (kg)
RCS (m²)

External: N2YO · Heavens-Above · Gunter

§ Orbital elements

Epoch: 2026-09-20T05:20:23.063424Z

Period
115.86 min
Inclination
82.5226°
Eccentricity
0.0015500
Mean motion
12.42915286 rev/d
Perigee alt
1,482.1 km
Apogee alt
1,506.5 km
Semi-major
7,872.4 km
B*
8.7148e-4
RAAN
164.4074°
Arg perigee
205.2960°
Mean anomaly
154.7362°
Rev number
35,411

§ Raw data

COSMOS 2531 (RODNIK-S *)1 43752U 18097B   26263.22248916  .00000131  00000+0  87148-3 0  99942 43752  82.5226 164.4074 0015500 205.2960 154.7362 12.42915286354111

JSON: /api/v1/satellites/43752 · /tle

For live sub-satellite position, see the globe view (requires WebGL).

§ Visibility from observer

Set your observer location to see the next 7 days of passes ≥ 10°. The values pass through the URL so the page stays shareable.

No JS? Fill the form by hand. The geolocation button needs JavaScript.

§ Radio — SatNOGS DB

ModeDescriptionDownlinkUplink
FM UHF Unknown 387.175 MHz
FM UHF Unknown 388.687 MHz

2 transmitters · refreshed weekly from db.satnogs.org